Clovis, NM

11:22 AM MST on December 12, 2017 (GMT -0700)
Clovis Municipal

Weather History for KCVN - April, 2014

Change the Weather History Date:

Friday, April 25, 2014

  Actual Average Record
Temperature  
Mean Temperature 65 °F -  
Max Temperature 86 °F 75 °F 96 °F (2012)
Min Temperature 44 °F 44 °F 30 °F (1921)
Growing Degree Days 15 (Base 50)    
Moisture  
Dew Point 24 °F    
Average Humidity 24    
Maximum Humidity 49    
Minimum Humidity 10    
Precipitation  
Precipitation 0.00 in - - ()
Sea Level Pressure  
Sea Level Pressure 29.94 in    
Wind  
Wind Speed 11 mph (SW)    
Max Wind Speed 30 mph    
Max Gust Speed 36 mph    
Averages and records for this station are not official NWS values.
T = Trace of Precipitation, MM = Missing Value Source: NWS Daily Summary

Daily Weather History Graph

Daily Weather History Graph

Search for Another Location

Airport or City:

Trip Planner

Search our weather history database for the weather conditions in past years. The results will help you decide how hot, cold, wet, or windy it might be!

Date:

Astronomy

Apr. 25, 2014 Rise Set
Actual Time 6:08 AM MDT 7:32 PM MDT
Civil Twilight 5:42 AM MDT 7:58 PM MDT
Nautical Twilight 5:10 AM MDT 8:30 PM MDT
Astronomical Twilight 4:37 AM MDT 9:03 PM MDT
Moon 3:48 AM MDT (4/25) 4:05 PM MDT (4/25)
Length of Visible Light 14h 16m
Length of Day
13h 23m
Waning Crescent, 15% of the Moon is Illuminated
Apr 25
Waning Crescent
Apr 29
New
May 6
First Quarter
May 14
Full
May 21
Last Quarter

Hourly Weather History & Observations

Time (MDT) Temp. Windchill Dew Point Humidity Pressure Visibility Wind Dir Wind Speed Gust Speed Precip Events Conditions
12:15 AM 50.0 °F - 24.8 °F 37% 30.04 in - South 4.6 mph - N/A   Clear
12:35 AM 50.0 °F - 24.8 °F 37% 30.04 in - Calm Calm - N/A   Clear
12:55 AM 48.2 °F - 24.8 °F 40% 30.04 in - SE 6.9 mph - N/A   Clear
1:15 AM 50.0 °F - 24.8 °F 37% 30.03 in - South 9.2 mph - N/A   Clear
1:35 AM 46.4 °F 41.5 °F 24.8 °F 43% 30.03 in - South 10.4 mph - N/A   Clear
1:55 AM 44.6 °F 39.2 °F 24.8 °F 46% 30.02 in - SSW 10.4 mph - N/A   Clear
2:15 AM 44.6 °F 39.7 °F 24.8 °F 46% 30.02 in - SSW 9.2 mph - N/A   Clear
2:35 AM 44.6 °F 40.7 °F 24.8 °F 46% 30.01 in - SSW 6.9 mph - N/A   Clear
2:55 AM 44.6 °F 40.7 °F 24.8 °F 46% 30.01 in - SSW 6.9 mph - N/A   Clear
3:15 AM 46.4 °F 43.5 °F 24.8 °F 43% 30.01 in - SSW 5.8 mph - N/A   Clear
3:35 AM 46.4 °F 42.9 °F 24.8 °F 43% 30.01 in - SSW 6.9 mph - N/A   Clear
3:55 AM 44.6 °F 40.2 °F 24.8 °F 46% 30.01 in - SSW 8.1 mph - N/A   Clear
4:15 AM 46.4 °F 41.9 °F 24.8 °F 43% 30.01 in - SW 9.2 mph - N/A   Clear
4:35 AM 46.4 °F 42.4 °F 26.6 °F 46% 30.01 in - SW 8.1 mph - N/A   Clear
4:55 AM 46.4 °F 41.5 °F 24.8 °F 43% 30.02 in - SW 10.4 mph - N/A   Clear
5:15 AM 44.6 °F 39.7 °F 26.6 °F 49% 30.01 in - WSW 9.2 mph - N/A   Clear
5:35 AM 46.4 °F 41.9 °F 26.6 °F 46% 30.01 in - WSW 9.2 mph - N/A   Clear
5:55 AM 44.6 °F 39.7 °F 26.6 °F 49% 30.01 in - SW 9.2 mph - N/A   Clear
6:15 AM 46.4 °F 41.5 °F 26.6 °F 46% 30.02 in - SW 10.4 mph - N/A   Clear
6:35 AM 46.4 °F 41.5 °F 26.6 °F 46% 30.02 in - WSW 10.4 mph - N/A   Clear
6:55 AM 48.2 °F - 28.4 °F 46% 30.02 in - WSW 8.1 mph - N/A   Clear
7:15 AM 53.6 °F - 28.4 °F 38% 30.03 in - SW 9.2 mph - N/A   Clear
7:35 AM 55.4 °F - 28.4 °F 36% 30.03 in - SW 9.2 mph - N/A   Clear
7:55 AM 57.2 °F - 28.4 °F 33% 30.03 in - SW 10.4 mph - N/A   Clear
8:15 AM 60.8 °F - 28.4 °F 29% 30.03 in - SW 13.8 mph - N/A   Clear
8:35 AM 62.6 °F - 30.2 °F 30% 30.03 in - SW 13.8 mph - N/A   Clear
8:55 AM 66.2 °F - 30.2 °F 26% 30.02 in - SW 15.0 mph - N/A   Clear
9:15 AM 69.8 °F - 30.2 °F 23% 30.02 in - SSW 15.0 mph - N/A   Clear
9:35 AM 71.6 °F - 28.4 °F 20% 30.02 in - SSW 18.4 mph 21.9 mph N/A   Clear
9:55 AM 73.4 °F - 28.4 °F 19% 30.01 in - SW 19.6 mph - N/A   Clear
10:15 AM 75.2 °F - 26.6 °F 17% 30.01 in - SW 16.1 mph - N/A   Clear
10:35 AM 77.0 °F - 26.6 °F 16% 30.01 in - SW 13.8 mph 21.9 mph N/A   Clear
10:55 AM 77.0 °F - 26.6 °F 16% 30.00 in - SW 15.0 mph 20.7 mph N/A   Clear
11:15 AM 78.8 °F - 24.8 °F 14% 29.99 in - SW 18.4 mph 24.2 mph N/A   Clear
11:35 AM 80.6 °F - 24.8 °F 13% 29.99 in - WSW 16.1 mph 20.7 mph N/A   Clear
11:55 AM 80.6 °F - 24.8 °F 13% 29.98 in - WSW 15.0 mph 23.0 mph N/A   Clear
12:15 PM 82.4 °F - 24.8 °F 12% 29.96 in - West 17.3 mph 23.0 mph N/A   Clear
12:35 PM 82.4 °F - 24.8 °F 12% 29.95 in - WSW 20.7 mph 27.6 mph N/A   Clear
12:55 PM 84.2 °F - 24.8 °F 11% 29.94 in - SW 15.0 mph 25.3 mph N/A   Clear
1:15 PM 84.2 °F - 24.8 °F 11% 29.94 in - WSW 15.0 mph 26.5 mph N/A   Clear
1:35 PM 84.2 °F - 23.0 °F 11% 29.93 in - WSW 20.7 mph 29.9 mph N/A   Clear
1:55 PM 86.0 °F - 24.8 °F 11% 29.92 in - West 19.6 mph 26.5 mph N/A   Clear
2:15 PM 84.2 °F - 24.8 °F 11% 29.91 in - SW 20.7 mph 25.3 mph N/A   Clear
2:35 PM 86.0 °F - 24.8 °F 11% 29.90 in - SW 20.7 mph 31.1 mph N/A   Clear
2:55 PM 86.0 °F - 24.8 °F 11% 29.89 in - WSW 23.0 mph 28.8 mph N/A   Clear
3:15 PM 84.2 °F - 23.0 °F 11% 29.88 in - SW 21.9 mph 31.1 mph N/A   Clear
3:35 PM 86.0 °F - 23.0 °F 10% 29.87 in - WSW 25.3 mph 32.2 mph N/A   Clear
3:55 PM 84.2 °F - 24.8 °F 11% 29.86 in - SW 24.2 mph 32.2 mph N/A   Clear
4:15 PM 84.2 °F - 23.0 °F 11% 29.85 in - SW 29.9 mph 35.7 mph N/A   Clear
4:35 PM 84.2 °F - 23.0 °F 11% 29.85 in - SSW 18.4 mph 27.6 mph N/A   Clear
4:55 PM 84.2 °F - 23.0 °F 11% 29.84 in - SSW 21.9 mph 28.8 mph N/A   Clear
5:15 PM 84.2 °F - 21.2 °F 10% 29.83 in - SSW 24.2 mph 31.1 mph N/A   Clear
5:35 PM 82.4 °F - 21.2 °F 10% 29.83 in - SSW 20.7 mph 28.8 mph N/A   Unknown
5:55 PM 82.4 °F - 21.2 °F 10% 29.82 in - SW 19.6 mph 26.5 mph N/A   Unknown
6:15 PM 82.4 °F - 21.2 °F 10% 29.82 in - SSW 24.2 mph 31.1 mph N/A   Unknown
6:35 PM 80.6 °F - 19.4 °F 10% 29.82 in - SSW 21.9 mph 26.5 mph N/A   Unknown
6:55 PM 78.8 °F - 19.4 °F 11% 29.82 in - SSW 19.6 mph 28.8 mph N/A   Unknown
7:15 PM 78.8 °F - 17.6 °F 10% 29.83 in - SSW 17.3 mph - N/A   Unknown
7:35 PM 75.2 °F - 17.6 °F 11% 29.83 in - SSW 17.3 mph 24.2 mph N/A   Unknown
7:55 PM 73.4 °F - 15.8 °F 11% 29.84 in - SSW 16.1 mph - N/A   Unknown
8:15 PM 73.4 °F - 15.8 °F 11% 29.84 in - SSW 13.8 mph - N/A   Unknown
8:35 PM 69.8 °F - 15.8 °F 13% 29.84 in - SSW 11.5 mph - N/A   Unknown
8:55 PM 68.0 °F - 17.6 °F 15% 29.85 in - SSW 11.5 mph - N/A   Unknown
9:15 PM 68.0 °F - 19.4 °F 16% 29.86 in - SSW 11.5 mph - N/A   Unknown
9:35 PM 62.6 °F - 19.4 °F 19% 29.86 in - SSW 10.4 mph - N/A   Unknown
9:55 PM 62.6 °F - 19.4 °F 19% 29.86 in - SSW 11.5 mph - N/A   Unknown
10:15 PM 62.6 °F - 19.4 °F 19% 29.85 in - SW 11.5 mph - N/A   Unknown
10:35 PM 64.4 °F - 19.4 °F 18% 29.84 in - SW 12.7 mph - N/A   Unknown
11:15 PM 60.8 °F - 19.4 °F 20% 29.83 in - WSW 9.2 mph - N/A   Unknown
11:35 PM 57.2 °F - 19.4 °F 23% 29.83 in - SW 9.2 mph - N/A   Unknown
11:55 PM 55.4 °F - 19.4 °F 25% 29.82 in - SW 9.2 mph - N/A   Unknown